Content
SEND FEEDBACK

Daily
Averages
Monthly
Summary
United States of America

MERIZO, GUAM


Home > North America > United States > Guam
Elevation: 3 meters     Latitude: 13 14N     Longitude: 144 39E

WEATHER
 
SELECT A DAY
Number of Records: 342,273;   Date Range: 1/1/95 - 8/30/14
 
SHARE

PRINT THIS DATA

[ ← Previous Day ]
WEATHER ALMANAC - 13 MAY, 2014
[ Next Day → ]
[ °F ]   °C
Weather ElementAverageHighLow
Temperature27.2 °C30 °C (11:13 am)25.9 °C (3:58 am)
Dewpoint23.5 °C24 °C (12:28 am)20.2 °C (1:58 pm)
Humidity80.2 %89 % (12:28 am)66 % (12:58 pm)
Barometer1011.9 hPa1013.9 hPa (8:53 am)1009.5 hPa (3:58 pm)
Wind Speed13.5 km/h18.5 km/h (1:58 pm)
Wind Gust27.8 km/h (1:58 pm)
Weather ElementAverage
Visibility16.1 km
Wind DirectionE (87.8 °)

Weather ElementTotal
Precipitation---
Cooling Degree Days9.6 (Base 18.3)
Growing Degree Days17.9 (Base 10)
Averaged from 46 records on 13 May, 2014
WEATHER CONDITIONS BREAKOUT
WIND DIRECTION BREAKOUT
WEATHER BY HOUR - 13 MAY, 2014
[ °F ]   °C
Local TimeTemperatureDewpointHumidityBarometerVisibilityWind DirectionWind SpeedGust SpeedPrecipitationEventsConditions
12:28 AM26 °C24 °C89 %1013.5 hPa16.1 kmESE (110°)7.4 km/hMostly Cloudy
12:58 AM26.3 °C23.9 °C87 %1012.2 hPa16.1 kmESE (110°)13 km/h0 mmMostly Cloudy
1:58 AM26.2 °C23.5 °C85 %1011.9 hPa16.1 kmEast (100°)13 km/hPartly Cloudy
2:58 AM26 °C23.5 °C86 %1011.2 hPa16.1 kmEast (100°)11.1 km/hScattered Clouds
3:08 AM26 °C24 °C89 %1012.2 hPa16.1 kmEast (100°)11.1 km/hMostly Cloudy
3:23 AM26 °C24 °C89 %1012.2 hPa16.1 kmESE (110°)9.3 km/hMostly Cloudy
3:33 AM26 °C23 °C83 %1012.2 hPa16.1 kmEast (100°)11.1 km/hScattered Clouds
3:58 AM25.9 °C23.4 °C86 %1011.2 hPa16.1 kmESE (110°)9.3 km/hScattered Clouds
4:53 AM26 °C24 °C89 %1012.5 hPa16.1 kmESE (110°)7.4 km/hMostly Cloudy
4:58 AM26 °C23.6 °C87 %1011.5 hPa16.1 kmESE (110°)9.3 km/hMostly Cloudy
5:03 AM26 °C23 °C83 %1012.5 hPa16.1 kmESE (110°)11.1 km/hMostly Cloudy
5:08 AM26 °C23 °C83 %1012.5 hPa16.1 kmEast (100°)9.3 km/hMostly Cloudy
5:13 AM26 °C24 °C89 %1012.5 hPa16.1 kmEast (90°)13 km/hMostly Cloudy
5:23 AM26 °C24 °C89 %1012.5 hPa16.1 kmEast (100°)11.1 km/hMostly Cloudy
5:33 AM26 °C24 °C89 %1012.5 hPa16.1 kmEast (100°)9.3 km/hMostly Cloudy
5:43 AM26 °C24 °C89 %1012.5 hPa16.1 kmEast (100°)11.1 km/hMostly Cloudy
5:58 AM25.9 °C23.7 °C88 %1011.9 hPa16.1 kmEast (100°)7.4 km/hMostly Cloudy
6:03 AM26 °C24 °C89 %1012.9 hPa16.1 kmEast (80°)9.3 km/hScattered Clouds
6:58 AM26.6 °C23.4 °C82 %1012.9 hPa16.1 kmEast (100°)11.1 km/hClear
7:58 AM27.5 °C23.7 °C80 %1012.9 hPa16.1 kmESE (110°)11.1 km/hScattered Clouds
8:53 AM29 °C24 °C74 %1013.9 hPa16.1 kmEast (90°)13 km/hMostly Cloudy
8:58 AM28.7 °C23.5 °C73 %1012.9 hPa16.1 kmEast (80°)14.8 km/hMostly Cloudy
9:13 AM29 °C24 °C74 %1013.9 hPa16.1 kmENE (60°)16.7 km/hScattered Clouds
9:58 AM28.7 °C23 °C71 %1012.9 hPa16.1 kmENE (60°)14.8 km/hClear
10:58 AM29.5 °C23.2 °C69 %1012.9 hPa16.1 kmENE (60°)13 km/hScattered Clouds
11:13 AM30 °C24 °C70 %1013.2 hPa16.1 kmNE (40°)16.7 km/hMostly Cloudy
11:28 AM29 °C24 °C74 %1013.2 hPa16.1 kmNNE (20°)16.7 km/hScattered Clouds
11:58 AM29.7 °C23.7 °C70 %1012.2 hPa16.1 kmNE (50°)14.8 km/hMostly Cloudy
12:58 PM29.8 °C22.9 °C66 %1011.9 hPa16.1 kmNNE (20°)16.7 km/hScattered Clouds
1:58 PM26.6 °C20.2 °C68 %1011.2 hPa16.1 kmNNE (30°)18.5 km/h27.8 km/hScattered Clouds
2:58 PM30 °C24 °C70 %1010.2 hPa16.1 kmENE (70°)18.5 km/hMostly Cloudy
3:28 PM29 °C23 °C70 %1010.8 hPa16.1 kmENE (60°)16.7 km/hMostly Cloudy
3:38 PM29 °C23 °C70 %1010.5 hPa16.1 kmEast (90°)14.8 km/hMostly Cloudy
3:58 PM28.7 °C23.8 °C75 %1009.5 hPa16.1 kmEast (90°)13 km/hMostly Cloudy
4:28 PM28 °C24 °C79 %1010.2 hPa16.1 kmEast (100°)14.8 km/hMostly Cloudy
4:58 PM28.2 °C23.7 °C76 %1009.5 hPa16.1 kmEast (90°)16.7 km/hMostly Cloudy
5:03 PM28 °C24 °C79 %1010.2 hPa16.1 kmEast (100°)18.5 km/hScattered Clouds
5:58 PM27.5 °C23.4 °C78 %1009.5 hPa16.1 kmESE (110°)18.5 km/hClear
6:58 PM26.8 °C23.2 °C81 %1010.2 hPa16.1 kmEast (100°)16.7 km/hPartly Cloudy
7:19 PM27 °C23 °C79 %1011.5 hPa16.1 kmEast (100°)16.7 km/hRainLight Rain
7:21 PM27 °C23 °C79 %1011.5 hPa16.1 kmEast (90°)18.5 km/hScattered Clouds
7:58 PM26.7 °C23.3 °C81 %1011.2 hPa16.1 kmEast (100°)16.7 km/h0 mmScattered Clouds
8:58 PM26.3 °C23.3 °C83 %1011.5 hPa16.1 kmEast (90°)14.8 km/hClear
9:58 PM26.3 °C23.4 °C84 %1011.9 hPa16.1 kmEast (90°)16.7 km/hClear
10:58 PM26.2 °C23.2 °C83 %1011.9 hPa16.1 kmEast (90°)13 km/hScattered Clouds
11:58 PM26.3 °C23.3 °C83 %1011.2 hPa16.1 kmESE (110°)13 km/hScattered Clouds
Hourly data recorded from PGUA, located 0 kilometers away from Merizo, Guam







STORIES FROM OUR PARTNERS